Time,TemperatureF,DewpointF,PressureIn,WindDirection,WindDirectionDegrees,WindSpeedMPH,WindSpeedGustMPH,Humidity,HourlyPrecipIn,Conditions,Clouds,dailyrainin,SolarRadiationWatts/m^2,SoftwareType,DateUTC
2015-03-28 00:02:00,52.1,47.4,30.13,West,262,0.0,4.0,84,0.00,,,0.01,0,Wunderground v.1.15,2015-03-28 07:02:00,
2015-03-28 00:07:00,52.1,47.1,30.13,WSW,257,4.0,5.0,83,0.00,,,0.01,0,Wunderground v.1.15,2015-03-28 07:07:00,
2015-03-28 00:12:00,52.3,46.6,30.13,SW,221,0.0,9.0,81,0.00,,,0.01,0,Wunderground v.1.15,2015-03-28 07:12:00,
2015-03-28 00:19:00,52.4,47.1,30.14,SW,232,0.0,1.0,82,0.00,,,0.01,0,Wunderground v.1.15,2015-03-28 07:19:00,
2015-03-28 00:22:00,52.4,46.4,30.13,SW,232,0.0,2.0,80,0.00,,,0.01,0,Wunderground v.1.15,2015-03-28 07:22:00,
2015-03-28 00:24:00,52.4,47.1,30.14,SW,232,0.0,0.0,82,0.00,,,0.01,0,Wunderground v.1.15,2015-03-28 07:24:00,
2015-03-28 00:25:00,52.4,47.1,30.14,SW,232,0.0,0.0,82,0.00,,,0.01,0,Wunderground v.1.15,2015-03-28 07:25:00,
2015-03-28 00:27:00,52.5,46.8,30.14,SW,232,0.0,1.0,81,0.00,,,0.01,0,Wunderground v.1.15,2015-03-28 07:27:00,
2015-03-28 00:32:00,52.5,46.8,30.14,SW,232,0.0,1.0,81,0.00,,,0.01,0,Wunderground v.1.15,2015-03-28 07:32:00,
2015-03-28 00:38:00,52.4,47.0,30.14,SW,232,0.0,0.0,82,0.00,,,0.01,,weatherlink.com 1.10,2015-03-28 07:38:00,
2015-03-28 00:41:00,52.3,46.6,30.15,SW,229,5.0,5.0,81,0.00,,,0.01,0,Wunderground v.1.15,2015-03-28 07:41:00,
2015-03-28 00:44:00,52.4,47.4,30.15,SW,232,0.0,0.0,83,0.00,,,0.01,0,Wunderground v.1.15,2015-03-28 07:44:00,
2015-03-28 00:45:00,52.5,46.5,30.15,SW,224,3.0,7.0,80,0.00,,,0.01,0,Wunderground v.1.15,2015-03-28 07:45:00,
2015-03-28 00:46:00,52.5,46.5,30.15,SSW,211,0.0,7.0,80,0.00,,,0.01,0,Wunderground v.1.15,2015-03-28 07:46:00,
2015-03-28 00:50:00,52.3,47.6,30.15,SW,233,2.0,2.0,84,0.00,,,0.01,0,Wunderground v.1.15,2015-03-28 07:50:00,
2015-03-28 00:55:00,52.2,47.2,30.15,SW,231,0.0,4.0,83,0.00,,,0.01,0,Wunderground v.1.15,2015-03-28 07:55:00,
2015-03-28 00:56:00,52.4,46.4,30.15,SW,221,2.0,7.0,80,0.00,,,0.01,0,Wunderground v.1.15,2015-03-28 07:56:00,
2015-03-28 00:57:00,52.4,46.4,30.15,SW,219,0.0,7.0,80,0.00,,,0.01,0,Wunderground v.1.15,2015-03-28 07:57:00,
2015-03-28 00:58:00,52.3,46.6,30.15,SSW,209,0.0,7.0,81,0.00,,,0.01,0,Wunderground v.1.15,2015-03-28 07:58:00,
2015-03-28 01:01:00,52.5,46.5,30.15,SW,219,7.0,7.0,80,0.00,,,0.01,0,Wunderground v.1.15,2015-03-28 08:01:00,
2015-03-28 01:06:00,52.5,46.5,30.15,SW,224,0.0,7.0,80,0.00,,,0.01,0,Wunderground v.1.15,2015-03-28 08:06:00,
2015-03-28 01:07:00,52.2,46.2,30.16,SW,227,0.0,8.0,80,0.00,,,0.01,0,Wunderground v.1.15,2015-03-28 08:07:00,
2015-03-28 01:08:00,52.2,46.5,30.16,SW,222,5.0,8.0,81,0.00,,,0.01,0,Wunderground v.1.15,2015-03-28 08:08:00,
2015-03-28 01:09:00,52.2,46.2,30.16,SW,217,2.0,8.0,80,0.00,,,0.01,0,Wunderground v.1.15,2015-03-28 08:09:00,
2015-03-28 01:10:00,52.2,46.5,30.16,SW,217,0.0,8.0,81,0.00,,,0.01,0,Wunderground v.1.15,2015-03-28 08:10:00,
2015-03-28 01:11:00,52.2,46.5,30.15,SW,218,5.0,8.0,81,0.00,,,0.01,0,Wunderground v.1.15,2015-03-28 08:11:00,
2015-03-28 01:12:00,52.4,46.4,30.15,SSW,213,5.0,7.0,80,0.00,,,0.01,0,Wunderground v.1.15,2015-03-28 08:12:00,
2015-03-28 01:20:00,52.1,46.4,30.16,SW,224,0.0,5.0,81,0.00,,,0.01,0,Wunderground v.1.15,2015-03-28 08:20:00,
2015-03-28 01:21:00,52.3,46.3,30.15,WSW,246,6.0,6.0,80,0.00,,,0.01,0,Wunderground v.1.15,2015-03-28 08:21:00,
2015-03-28 01:22:00,52.1,46.4,30.16,SW,224,0.0,5.0,81,0.00,,,0.01,0,Wunderground v.1.15,2015-03-28 08:22:00,
2015-03-28 01:23:00,52.1,46.4,30.16,SW,223,0.0,5.0,81,0.00,,,0.01,0,Wunderground v.1.15,2015-03-28 08:23:00,
2015-03-28 01:25:00,52.1,46.4,30.16,SW,223,0.0,1.0,81,0.00,,,0.01,0,Wunderground v.1.15,2015-03-28 08:25:00,
2015-03-28 01:27:00,52.1,46.4,30.16,SW,225,0.0,3.0,81,0.00,,,0.01,0,Wunderground v.1.15,2015-03-28 08:27:00,
2015-03-28 01:28:00,52.1,46.8,30.16,SW,225,0.0,3.0,82,0.00,,,0.01,0,Wunderground v.1.15,2015-03-28 08:28:00,
2015-03-28 01:29:00,52.1,46.8,30.16,SW,225,1.0,3.0,82,0.00,,,0.01,0,Wunderground v.1.15,2015-03-28 08:29:00,
2015-03-28 01:30:00,52.2,46.5,30.15,SW,236,0.0,8.0,81,0.00,,,0.01,0,Wunderground v.1.15,2015-03-28 08:30:00,
2015-03-28 01:31:00,52.0,46.7,30.16,SW,225,0.0,3.0,82,0.00,,,0.01,0,Wunderground v.1.15,2015-03-28 08:31:00,
2015-03-28 01:33:00,52.0,46.7,30.16,SW,225,2.0,3.0,82,0.00,,,0.01,0,Wunderground v.1.15,2015-03-28 08:33:00,
2015-03-28 01:36:00,52.2,46.5,30.16,SW,224,0.0,5.0,81,0.00,,,0.01,0,Wunderground v.1.15,2015-03-28 08:36:00,
2015-03-28 01:39:00,51.9,46.6,30.16,SW,225,0.0,1.0,82,0.00,,,0.01,0,Wunderground v.1.15,2015-03-28 08:39:00,
2015-03-28 01:40:00,51.9,46.9,30.16,SW,225,0.0,1.0,83,0.00,,,0.01,0,Wunderground v.1.15,2015-03-28 08:40:00,
2015-03-28 01:41:00,52.1,46.4,30.16,SW,223,0.0,1.0,81,0.00,,,0.01,0,Wunderground v.1.15,2015-03-28 08:41:00,
2015-03-28 01:44:00,51.8,46.5,30.16,SW,225,0.0,0.0,82,0.00,,,0.01,0,Wunderground v.1.15,2015-03-28 08:44:00,
2015-03-28 01:45:00,51.8,46.5,30.16,SW,225,0.0,0.0,82,0.00,,,0.01,0,Wunderground v.1.15,2015-03-28 08:45:00,
2015-03-28 01:46:00,51.8,46.5,30.16,SW,225,0.0,0.0,82,0.00,,,0.01,0,Wunderground v.1.15,2015-03-28 08:46:00,
2015-03-28 01:47:00,51.8,46.5,30.17,SW,225,0.0,0.0,82,0.00,,,0.01,0,Wunderground v.1.15,2015-03-28 08:47:00,
2015-03-28 01:49:00,52.0,46.7,30.16,SW,225,2.0,3.0,82,0.00,,,0.01,0,Wunderground v.1.15,2015-03-28 08:49:00,
2015-03-28 01:50:00,51.7,46.4,30.17,West,277,5.0,5.0,82,0.00,,,0.01,0,Wunderground v.1.15,2015-03-28 08:50:00,
2015-03-28 01:51:00,51.7,46.4,30.17,West,263,0.0,5.0,82,0.00,,,0.01,0,Wunderground v.1.15,2015-03-28 08:51:00,
2015-03-28 01:52:00,51.7,46.7,30.17,West,263,0.0,5.0,83,0.00,,,0.01,0,Wunderground v.1.15,2015-03-28 08:52:00,
2015-03-28 01:54:00,51.7,46.7,30.17,West,263,0.0,1.0,83,0.00,,,0.01,0,Wunderground v.1.15,2015-03-28 08:54:00,
2015-03-28 01:55:00,51.9,46.6,30.16,SW,225,0.0,1.0,82,0.00,,,0.01,0,Wunderground v.1.15,2015-03-28 08:55:00,
2015-03-28 01:56:00,51.7,47.0,30.17,West,259,3.0,3.0,84,0.00,,,0.01,0,Wunderground v.1.15,2015-03-28 08:56:00,
2015-03-28 01:58:00,51.6,46.6,30.17,SSW,213,0.0,3.0,83,0.00,,,0.01,0,Wunderground v.1.15,2015-03-28 08:58:00,
2015-03-28 01:59:00,51.6,46.9,30.17,SSW,213,0.0,3.0,84,0.00,,,0.01,0,Wunderground v.1.15,2015-03-28 08:59:00,
2015-03-28 02:02:00,51.5,46.8,30.17,SW,215,3.0,3.0,84,0.00,,,0.01,0,Wunderground v.1.15,2015-03-28 09:02:00,
2015-03-28 02:03:00,51.5,46.8,30.17,SW,215,0.0,3.0,84,0.00,,,0.01,0,Wunderground v.1.15,2015-03-28 09:03:00,
2015-03-28 02:04:00,51.5,46.8,30.17,SW,215,0.0,3.0,84,0.00,,,0.01,0,Wunderground v.1.15,2015-03-28 09:04:00,
2015-03-28 02:05:00,51.7,46.4,30.17,SW,225,4.0,4.0,82,0.00,,,0.01,0,Wunderground v.1.15,2015-03-28 09:05:00,
2015-03-28 02:06:00,51.5,46.8,30.17,SW,215,0.0,3.0,84,0.00,,,0.01,0,Wunderground v.1.15,2015-03-28 09:06:00,
2015-03-28 02:07:00,51.4,46.7,30.17,SW,215,0.0,3.0,84,0.00,,,0.01,0,Wunderground v.1.15,2015-03-28 09:07:00,
2015-03-28 02:08:00,51.5,46.8,30.17,SW,215,0.0,3.0,84,0.00,,,0.01,0,Wunderground v.1.15,2015-03-28 09:08:00,
2015-03-28 02:09:00,51.4,46.7,30.17,SW,215,2.0,3.0,84,0.00,,,0.01,0,Wunderground v.1.15,2015-03-28 09:09:00,
2015-03-28 02:10:00,51.7,46.7,30.17,West,263,0.0,5.0,83,0.00,,,0.01,0,Wunderground v.1.15,2015-03-28 09:10:00,
2015-03-28 02:11:00,51.4,46.7,30.18,SW,215,3.0,3.0,84,0.00,,,0.01,0,Wunderground v.1.15,2015-03-28 09:11:00,
2015-03-28 02:12:00,51.4,46.7,30.17,SW,215,0.0,4.0,84,0.00,,,0.01,0,Wunderground v.1.15,2015-03-28 09:12:00,
2015-03-28 02:13:00,51.4,46.7,30.18,SW,215,0.0,4.0,84,0.00,,,0.01,0,Wunderground v.1.15,2015-03-28 09:13:00,
2015-03-28 02:18:00,51.5,46.8,30.17,SW,215,0.0,1.0,84,0.00,,,0.01,0,Wunderground v.1.15,2015-03-28 09:18:00,
2015-03-28 02:23:00,51.5,46.8,30.17,SW,215,0.0,3.0,84,0.00,,,0.01,0,Wunderground v.1.15,2015-03-28 09:23:00,
2015-03-28 02:28:00,51.4,46.7,30.17,SW,215,0.0,4.0,84,0.00,,,0.01,0,Wunderground v.1.15,2015-03-28 09:28:00,
2015-03-28 02:33:00,51.4,46.7,30.17,West,266,4.0,6.0,84,0.00,,,0.01,0,Wunderground v.1.15,2015-03-28 09:33:00,
2015-03-28 02:38:00,51.4,46.7,30.17,West,266,0.0,0.0,84,0.00,,,0.01,0,Wunderground v.1.15,2015-03-28 09:38:00,
2015-03-28 02:44:00,51.4,46.7,30.18,West,263,2.0,2.0,84,0.00,,,0.01,0,Wunderground v.1.15,2015-03-28 09:44:00,
2015-03-28 02:49:00,51.3,46.6,30.18,SW,223,0.0,6.0,84,0.00,,,0.01,0,Wunderground v.1.15,2015-03-28 09:49:00,
2015-03-28 02:54:00,51.3,46.6,30.18,SW,223,0.0,6.0,84,0.00,,,0.01,0,Wunderground v.1.15,2015-03-28 09:54:00,
2015-03-28 02:59:00,51.3,46.9,30.18,SSW,213,1.0,6.0,85,0.00,,,0.01,0,Wunderground v.1.15,2015-03-28 09:59:00,
2015-03-28 03:04:00,51.3,46.9,30.19,SSW,207,5.0,6.0,85,0.00,,,0.01,0,Wunderground v.1.15,2015-03-28 10:04:00,
2015-03-28 03:09:00,51.3,46.9,30.19,SSW,211,3.0,7.0,85,0.00,,,0.01,0,Wunderground v.1.15,2015-03-28 10:09:00,
2015-03-28 03:14:00,51.3,46.9,30.18,SSW,202,0.0,7.0,85,0.00,,,0.01,0,Wunderground v.1.15,2015-03-28 10:14:00,
2015-03-28 03:22:00,51.2,46.8,30.18,SSW,194,0.0,3.0,85,0.00,,,0.01,0,Wunderground v.1.15,2015-03-28 10:22:00,
2015-03-28 03:27:00,50.9,46.9,30.19,SSW,195,0.0,1.0,86,0.00,,,0.01,0,Wunderground v.1.15,2015-03-28 10:27:00,
2015-03-28 03:32:00,50.8,46.8,30.19,SSW,213,3.0,5.0,86,0.00,,,0.01,0,Wunderground v.1.15,2015-03-28 10:32:00,
2015-03-28 03:37:00,50.7,46.7,30.19,SSW,205,4.0,7.0,86,0.00,,,0.01,0,Wunderground v.1.15,2015-03-28 10:37:00,
2015-03-28 03:42:00,50.6,46.3,30.20,SSW,195,4.0,7.0,85,0.00,,,0.01,0,Wunderground v.1.15,2015-03-28 10:42:00,
2015-03-28 03:47:00,50.5,46.2,30.20,SSW,195,0.0,2.0,85,0.00,,,0.01,0,Wunderground v.1.15,2015-03-28 10:47:00,
2015-03-28 03:52:00,50.4,46.1,30.20,SSW,195,0.0,4.0,85,0.00,,,0.01,0,Wunderground v.1.15,2015-03-28 10:52:00,
2015-03-28 03:57:00,50.3,46.3,30.20,SSW,195,0.0,0.0,86,0.00,,,0.01,0,Wunderground v.1.15,2015-03-28 10:57:00,
2015-03-28 04:02:00,50.2,46.2,30.20,SSW,195,0.0,5.0,86,0.00,,,0.01,0,Wunderground v.1.15,2015-03-28 11:02:00,
2015-03-28 04:07:00,50.1,46.1,30.21,SSW,195,1.0,1.0,86,0.00,,,0.01,0,Wunderground v.1.15,2015-03-28 11:07:00,
2015-03-28 04:12:00,50.1,46.1,30.21,SSW,195,4.0,5.0,86,0.00,,,0.01,0,Wunderground v.1.15,2015-03-28 11:12:00,
2015-03-28 04:13:00,50.1,45.8,30.22,SSW,199,0.0,4.0,85,0.00,,,0.01,0,Wunderground v.1.15,2015-03-28 11:13:00,
2015-03-28 04:14:00,50.1,45.8,30.22,SSW,199,2.0,4.0,85,0.00,,,0.01,0,Wunderground v.1.15,2015-03-28 11:14:00,
2015-03-28 04:16:00,50.1,45.8,30.22,SSW,199,1.0,4.0,85,0.00,,,0.01,0,Wunderground v.1.15,2015-03-28 11:16:00,
2015-03-28 04:17:00,50.1,45.8,30.22,SSW,198,0.0,4.0,85,0.00,,,0.01,0,Wunderground v.1.15,2015-03-28 11:17:00,
2015-03-28 04:18:00,50.1,45.8,30.22,SSW,198,0.0,4.0,85,0.00,,,0.01,0,Wunderground v.1.15,2015-03-28 11:18:00,
2015-03-28 04:19:00,50.1,45.8,30.22,SSW,198,0.0,4.0,85,0.00,,,0.01,0,Wunderground v.1.15,2015-03-28 11:19:00,
2015-03-28 04:21:00,50.1,46.1,30.22,SSW,198,0.0,0.0,86,0.00,,,0.01,0,Wunderground v.1.15,2015-03-28 11:21:00,
2015-03-28 04:22:00,50.0,46.0,30.21,SSW,199,2.0,4.0,86,0.00,,,0.01,0,Wunderground v.1.15,2015-03-28 11:22:00,
2015-03-28 04:23:00,50.0,46.0,30.22,SSW,198,0.0,0.0,86,0.00,,,0.01,0,Wunderground v.1.15,2015-03-28 11:23:00,
2015-03-28 04:27:00,50.1,46.1,30.21,SSW,199,0.0,1.0,86,0.00,,,0.01,0,Wunderground v.1.15,2015-03-28 11:27:00,
2015-03-28 04:32:00,50.1,45.8,30.22,SSW,199,4.0,4.0,85,0.00,,,0.01,0,Wunderground v.1.15,2015-03-28 11:32:00,
2015-03-28 04:37:00,50.0,46.0,30.22,SSW,198,0.0,0.0,86,0.00,,,0.01,0,Wunderground v.1.15,2015-03-28 11:37:00,
2015-03-28 04:42:00,49.9,45.9,30.22,SSW,198,0.0,0.0,86,0.00,,,0.01,0,Wunderground v.1.15,2015-03-28 11:42:00,
2015-03-28 04:47:00,49.9,45.9,30.22,SSW,198,2.0,2.0,86,0.00,,,0.01,0,Wunderground v.1.15,2015-03-28 11:47:00,
2015-03-28 04:52:00,49.8,45.8,30.22,SSW,197,0.0,5.0,86,0.00,,,0.01,0,Wunderground v.1.15,2015-03-28 11:52:00,
2015-03-28 04:57:00,49.7,45.7,30.23,SSW,197,0.0,1.0,86,0.00,,,0.01,0,Wunderground v.1.15,2015-03-28 11:57:00,
2015-03-28 05:02:00,49.6,45.9,30.23,SSW,200,0.0,7.0,87,0.00,,,0.01,0,Wunderground v.1.15,2015-03-28 12:02:00,
2015-03-28 05:07:00,49.6,45.9,30.23,SSW,201,2.0,5.0,87,0.00,,,0.01,0,Wunderground v.1.15,2015-03-28 12:07:00,
2015-03-28 05:12:00,49.5,45.8,30.23,SSW,200,1.0,5.0,87,0.00,,,0.01,0,Wunderground v.1.15,2015-03-28 12:12:00,
2015-03-28 05:22:00,49.6,45.9,30.23,SSW,198,0.0,6.0,87,0.00,,,0.01,0,Wunderground v.1.15,2015-03-28 12:22:00,
2015-03-28 05:27:00,49.5,45.8,30.24,South,186,0.0,2.0,87,0.00,,,0.01,0,Wunderground v.1.15,2015-03-28 12:27:00,
2015-03-28 05:32:00,49.4,45.7,30.24,South,171,3.0,7.0,87,0.00,,,0.01,0,Wunderground v.1.15,2015-03-28 12:32:00,
2015-03-28 05:37:00,49.3,45.9,30.23,SSE,163,0.0,2.0,88,0.00,,,0.01,0,Wunderground v.1.15,2015-03-28 12:37:00,
2015-03-28 05:42:00,49.2,45.8,30.23,SSE,164,4.0,4.0,88,0.00,,,0.01,0,Wunderground v.1.15,2015-03-28 12:42:00,
2015-03-28 05:47:00,49.0,45.6,30.24,SSE,164,0.0,0.0,88,0.00,,,0.01,0,Wunderground v.1.15,2015-03-28 12:47:00,
2015-03-28 05:52:00,48.9,46.7,30.24,SSE,164,0.0,0.0,92,0.00,,,0.01,0,Wunderground v.1.15,2015-03-28 12:52:00,
2015-03-28 05:57:00,48.8,45.7,30.24,SSE,164,0.0,0.0,89,0.00,,,0.01,0,Wunderground v.1.15,2015-03-28 12:57:00,
2015-03-28 06:02:00,48.7,45.6,30.24,SSE,164,0.0,4.0,89,0.00,,,0.01,0,Wunderground v.1.15,2015-03-28 13:02:00,
2015-03-28 06:07:00,48.6,45.8,30.25,SSE,164,0.0,3.0,90,0.00,,,0.01,0,Wunderground v.1.15,2015-03-28 13:07:00,
2015-03-28 06:12:00,48.5,45.7,30.25,SSE,168,3.0,6.0,90,0.00,,,0.01,0,Wunderground v.1.15,2015-03-28 13:12:00,
2015-03-28 06:22:00,48.5,45.7,30.26,South,170,0.0,1.0,90,0.00,,,0.01,0,Wunderground v.1.15,2015-03-28 13:22:00,
2015-03-28 06:27:00,48.6,45.5,30.26,South,170,0.0,1.0,89,0.00,,,0.01,0,Wunderground v.1.15,2015-03-28 13:27:00,
2015-03-28 06:32:00,48.7,45.9,30.26,South,171,0.0,7.0,90,0.00,,,0.01,0,Wunderground v.1.15,2015-03-28 13:32:00,
2015-03-28 06:37:00,48.7,45.6,30.27,South,175,0.0,3.0,89,0.00,,,0.01,0,Wunderground v.1.15,2015-03-28 13:37:00,
2015-03-28 06:42:00,48.7,45.6,30.27,South,190,0.0,6.0,89,0.00,,,0.01,0,Wunderground v.1.15,2015-03-28 13:42:00,
2015-03-28 06:47:00,48.6,45.5,30.27,South,190,0.0,1.0,89,0.00,,,0.01,0,Wunderground v.1.15,2015-03-28 13:47:00,
2015-03-28 06:52:00,48.5,45.4,30.28,South,190,0.0,1.0,89,0.00,,,0.01,0,Wunderground v.1.15,2015-03-28 13:52:00,
2015-03-28 06:57:00,48.4,45.6,30.28,South,190,0.0,0.0,90,0.00,,,0.01,0,Wunderground v.1.15,2015-03-28 13:57:00,
2015-03-28 07:02:00,48.4,45.6,30.28,South,190,0.0,3.0,90,0.00,,,0.01,5,Wunderground v.1.15,2015-03-28 14:02:00,
2015-03-28 07:05:00,48.3,45.5,30.30,South,185,0.0,1.0,90,0.00,,,0.01,16,Wunderground v.1.15,2015-03-28 14:05:00,
2015-03-28 07:07:00,48.3,45.5,30.28,South,190,0.0,1.0,90,0.00,,,0.01,7,Wunderground v.1.15,2015-03-28 14:07:00,
2015-03-28 07:09:00,48.5,45.7,30.30,South,182,0.0,6.0,90,0.00,,,0.01,18,Wunderground v.1.15,2015-03-28 14:09:00,
2015-03-28 07:11:00,48.5,45.7,30.30,South,182,0.0,1.0,90,0.00,,,0.01,18,Wunderground v.1.15,2015-03-28 14:11:00,
2015-03-28 07:12:00,48.2,46.6,30.29,South,190,0.0,4.0,94,0.00,,,0.01,9,Wunderground v.1.15,2015-03-28 14:12:00,
2015-03-28 07:13:00,48.5,45.7,30.30,South,182,0.0,1.0,90,0.00,,,0.01,19,Wunderground v.1.15,2015-03-28 14:13:00,
2015-03-28 07:14:00,48.5,45.7,30.30,South,182,0.0,1.0,90,0.00,,,0.01,21,Wunderground v.1.15,2015-03-28 14:14:00,
2015-03-28 07:15:00,48.5,45.7,30.30,South,182,0.0,1.0,90,0.00,,,0.01,21,Wunderground v.1.15,2015-03-28 14:15:00,
2015-03-28 07:16:00,48.5,45.7,30.30,South,182,0.0,1.0,90,0.00,,,0.01,23,Wunderground v.1.15,2015-03-28 14:16:00,
2015-03-28 07:18:00,48.5,45.7,30.30,South,182,0.0,1.0,90,0.00,,,0.01,30,Wunderground v.1.15,2015-03-28 14:18:00,
2015-03-28 07:19:00,48.5,45.7,30.31,South,182,0.0,1.0,90,0.00,,,0.01,28,Wunderground v.1.15,2015-03-28 14:19:00,
2015-03-28 07:20:00,48.5,45.7,30.31,South,182,0.0,2.0,90,0.00,,,0.01,23,Wunderground v.1.15,2015-03-28 14:20:00,
2015-03-28 07:22:00,48.3,45.5,30.30,South,185,0.0,1.0,90,0.00,,,0.01,14,Wunderground v.1.15,2015-03-28 14:22:00,
2015-03-28 07:27:00,48.5,45.7,30.30,South,182,0.0,6.0,90,0.00,,,0.01,18,Wunderground v.1.15,2015-03-28 14:27:00,
2015-03-28 07:32:00,48.5,45.7,30.30,South,182,0.0,1.0,90,0.00,,,0.01,21,Wunderground v.1.15,2015-03-28 14:32:00,
2015-03-28 07:37:00,48.5,45.7,30.31,South,182,2.0,2.0,90,0.00,,,0.01,23,Wunderground v.1.15,2015-03-28 14:37:00,
2015-03-28 07:42:00,48.5,45.7,30.31,South,182,0.0,2.0,90,0.00,,,0.01,23,Wunderground v.1.15,2015-03-28 14:42:00,
2015-03-28 07:43:00,48.4,45.9,30.32,South,182,0.0,0.0,91,0.00,,,0.01,169,Wunderground v.1.15,2015-03-28 14:43:00,
2015-03-28 07:45:00,48.5,46.0,30.32,South,182,0.0,0.0,91,0.00,,,0.01,174,Wunderground v.1.15,2015-03-28 14:45:00,
2015-03-28 07:46:00,48.5,46.0,30.32,South,182,2.0,2.0,91,0.00,,,0.01,188,Wunderground v.1.15,2015-03-28 14:46:00,
2015-03-28 07:47:00,48.4,45.6,30.31,South,182,0.0,0.0,90,0.00,,,0.01,26,Wunderground v.1.15,2015-03-28 14:47:00,
2015-03-28 07:49:00,48.8,46.3,30.33,South,182,0.0,3.0,91,0.00,,,0.01,216,Wunderground v.1.15,2015-03-28 14:49:00,
2015-03-28 07:50:00,48.9,46.4,30.33,South,182,0.0,0.0,91,0.00,,,0.01,209,Wunderground v.1.15,2015-03-28 14:50:00,
2015-03-28 07:51:00,48.9,46.4,30.33,South,182,0.0,0.0,91,0.00,,,0.01,211,Wunderground v.1.15,2015-03-28 14:51:00,
2015-03-28 07:52:00,48.4,45.6,30.32,South,182,0.0,0.0,90,0.00,,,0.01,42,Wunderground v.1.15,2015-03-28 14:52:00,
2015-03-28 07:53:00,49.1,46.6,30.33,South,182,0.0,1.0,91,0.00,,,0.01,132,Wunderground v.1.15,2015-03-28 14:53:00,
2015-03-28 07:54:00,49.2,46.7,30.33,South,182,0.0,1.0,91,0.00,,,0.01,105,Wunderground v.1.15,2015-03-28 14:54:00,
2015-03-28 07:55:00,49.2,46.7,30.33,South,182,0.0,1.0,91,0.00,,,0.01,105,Wunderground v.1.15,2015-03-28 14:55:00,
2015-03-28 07:56:00,49.3,46.8,30.33,South,182,0.0,1.0,91,0.00,,,0.01,97,Wunderground v.1.15,2015-03-28 14:56:00,
2015-03-28 07:57:00,48.3,45.5,30.32,South,182,0.0,0.0,90,0.00,,,0.01,134,Wunderground v.1.15,2015-03-28 14:57:00,
2015-03-28 08:02:00,48.5,46.0,30.32,South,182,0.0,0.0,91,0.00,,,0.01,174,Wunderground v.1.15,2015-03-28 15:02:00,
2015-03-28 08:07:00,48.8,46.3,30.33,South,182,0.0,0.0,91,0.00,,,0.01,216,Wunderground v.1.15,2015-03-28 15:07:00,
2015-03-28 08:12:00,49.3,46.8,30.33,South,182,0.0,1.0,91,0.00,,,0.01,105,Wunderground v.1.15,2015-03-28 15:12:00,
2015-03-28 08:17:00,49.6,46.8,30.33,South,182,0.0,0.0,90,0.00,,,0.01,98,Wunderground v.1.15,2015-03-28 15:17:00,
2015-03-28 08:23:00,49.6,46.8,30.33,South,182,2.0,2.0,90,0.00,,,0.01,100,Wunderground v.1.15,2015-03-28 15:23:00,
2015-03-28 08:28:00,50.0,47.2,30.33,South,182,0.0,0.0,90,0.00,,,0.01,93,Wunderground v.1.15,2015-03-28 15:28:00,
2015-03-28 08:33:00,50.1,47.0,30.33,South,182,0.0,0.0,89,0.00,,,0.01,70,Wunderground v.1.15,2015-03-28 15:33:00,
2015-03-28 08:38:00,50.1,47.0,30.33,South,182,0.0,3.0,89,0.00,,,0.01,91,Wunderground v.1.15,2015-03-28 15:38:00,
2015-03-28 08:43:00,50.2,46.8,30.34,South,182,0.0,3.0,88,0.00,,,0.01,197,Wunderground v.1.15,2015-03-28 15:43:00,
2015-03-28 08:48:00,50.4,47.3,30.34,South,182,0.0,0.0,89,0.00,,,0.01,132,Wunderground v.1.15,2015-03-28 15:48:00,
2015-03-28 08:53:00,50.6,47.2,30.34,South,182,0.0,0.0,88,0.00,,,0.01,93,Wunderground v.1.15,2015-03-28 15:53:00,
2015-03-28 08:58:00,50.6,46.9,30.34,South,182,0.0,0.0,87,0.00,,,0.01,107,Wunderground v.1.15,2015-03-28 15:58:00,
2015-03-28 09:03:00,50.7,47.0,30.34,South,182,0.0,3.0,87,0.00,,,0.01,251,Wunderground v.1.15,2015-03-28 16:03:00,
2015-03-28 09:08:00,51.0,47.6,30.34,South,182,0.0,0.0,88,0.00,,,0.01,227,Wunderground v.1.15,2015-03-28 16:08:00,
2015-03-28 09:13:00,51.2,47.2,30.35,SW,226,5.0,7.0,86,0.00,,,0.01,160,Wunderground v.1.15,2015-03-28 16:13:00,
2015-03-28 09:23:00,51.4,47.4,30.35,South,188,0.0,3.0,86,0.00,,,0.01,118,Wunderground v.1.15,2015-03-28 16:23:00,
2015-03-28 09:28:00,51.7,47.6,30.34,SSW,202,6.0,6.0,86,0.00,,,0.01,295,Wunderground v.1.15,2015-03-28 16:28:00,
2015-03-28 09:33:00,52.0,47.6,30.34,SSW,213,0.0,7.0,85,0.00,,,0.01,283,Wunderground v.1.15,2015-03-28 16:33:00,
2015-03-28 09:38:00,52.3,47.6,30.34,SSW,209,7.0,8.0,84,0.00,,,0.01,213,Wunderground v.1.15,2015-03-28 16:38:00,
2015-03-28 09:43:00,52.3,47.3,30.34,SW,221,2.0,8.0,83,0.00,,,0.01,635,Wunderground v.1.15,2015-03-28 16:43:00,
2015-03-28 09:48:00,52.8,47.8,30.34,SW,234,3.0,5.0,83,0.00,,,0.01,223,Wunderground v.1.15,2015-03-28 16:48:00,
2015-03-28 09:53:00,53.1,47.7,30.34,South,180,0.0,7.0,82,0.00,,,0.01,234,Wunderground v.1.15,2015-03-28 16:53:00,
2015-03-28 09:58:00,53.3,47.6,30.34,South,175,0.0,5.0,81,0.00,,,0.01,260,Wunderground v.1.15,2015-03-28 16:58:00,
2015-03-28 10:03:00,53.8,48.1,30.34,SSW,200,0.0,5.0,81,0.00,,,0.01,315,Wunderground v.1.15,2015-03-28 17:03:00,
2015-03-28 10:08:00,53.9,47.9,30.34,SSE,159,0.0,4.0,80,0.00,,,0.01,388,Wunderground v.1.15,2015-03-28 17:08:00,
2015-03-28 10:13:00,54.2,48.2,30.34,South,181,8.0,8.0,80,0.00,,,0.01,318,Wunderground v.1.15,2015-03-28 17:13:00,
2015-03-28 10:20:00,54.2,47.8,30.34,South,189,0.0,3.0,79,0.00,,,0.01,315,Wunderground v.1.15,2015-03-28 17:20:00,
2015-03-28 10:26:00,54.4,48.0,30.35,SSW,211,8.0,9.0,79,0.00,,,0.01,297,Wunderground v.1.15,2015-03-28 17:26:00,
2015-03-28 10:31:00,54.3,47.9,30.35,SW,221,2.0,6.0,79,0.00,,,0.01,267,Wunderground v.1.15,2015-03-28 17:31:00,
2015-03-28 10:36:00,54.3,47.9,30.36,South,188,0.0,8.0,79,0.00,,,0.01,265,Wunderground v.1.15,2015-03-28 17:36:00,
2015-03-28 10:41:00,54.4,47.7,30.36,SW,229,7.0,8.0,78,0.00,,,0.01,265,Wunderground v.1.15,2015-03-28 17:41:00,
2015-03-28 10:46:00,54.4,47.3,30.35,SW,215,0.0,8.0,77,0.00,,,0.01,207,Wunderground v.1.15,2015-03-28 17:46:00,
2015-03-28 10:51:00,54.5,47.1,30.36,SSW,213,4.0,8.0,76,0.00,,,0.01,255,Wunderground v.1.15,2015-03-28 17:51:00,
2015-03-28 10:56:00,54.6,47.2,30.35,West,259,0.0,8.0,76,0.00,,,0.01,726,Wunderground v.1.15,2015-03-28 17:56:00,
2015-03-28 11:01:00,55.2,47.4,30.35,SSW,211,6.0,10.0,75,0.00,,,0.01,698,Wunderground v.1.15,2015-03-28 18:01:00,
2015-03-28 11:06:00,56.0,47.8,30.35,WSW,258,4.0,10.0,74,0.00,,,0.01,728,Wunderground v.1.15,2015-03-28 18:06:00,
2015-03-28 11:11:00,56.3,47.8,30.36,SW,220,7.0,11.0,73,0.00,,,0.01,780,Wunderground v.1.15,2015-03-28 18:11:00,
2015-03-28 11:16:00,55.8,46.9,30.36,SW,232,7.0,11.0,72,0.00,,,0.01,329,Wunderground v.1.15,2015-03-28 18:16:00,
2015-03-28 11:22:00,55.8,47.3,30.36,SSW,198,9.0,9.0,73,0.00,,,0.01,329,Wunderground v.1.15,2015-03-28 18:22:00,
2015-03-28 11:27:00,56.2,47.3,30.36,SW,225,7.0,8.0,72,0.00,,,0.01,387,Wunderground v.1.15,2015-03-28 18:27:00,
2015-03-28 11:32:00,56.2,46.9,30.36,SW,214,7.0,10.0,71,0.00,,,0.01,232,Wunderground v.1.15,2015-03-28 18:32:00,
2015-03-28 11:37:00,55.7,47.2,30.36,WSW,240,5.0,7.0,73,0.00,,,0.01,139,Wunderground v.1.15,2015-03-28 18:37:00,
2015-03-28 11:42:00,55.3,47.2,30.36,SSW,197,4.0,10.0,74,0.00,,,0.01,241,Wunderground v.1.15,2015-03-28 18:42:00,
2015-03-28 11:47:00,55.3,47.5,30.35,South,171,5.0,5.0,75,0.00,,,0.01,359,Wunderground v.1.15,2015-03-28 18:47:00,
2015-03-28 11:52:00,56.0,47.5,30.35,South,187,5.0,7.0,73,0.00,,,0.01,891,Wunderground v.1.15,2015-03-28 18:52:00,
2015-03-28 11:57:00,56.8,47.5,30.35,SW,218,8.0,8.0,71,0.00,,,0.01,285,Wunderground v.1.15,2015-03-28 18:57:00,
2015-03-28 12:02:00,57.1,47.4,30.35,SW,225,4.0,14.0,70,0.00,,,0.01,953,Wunderground v.1.15,2015-03-28 19:02:00,
2015-03-28 12:07:00,58.3,48.9,30.35,West,260,4.0,8.0,71,0.00,,,0.01,849,Wunderground v.1.15,2015-03-28 19:07:00,
2015-03-28 12:12:00,59.5,48.1,30.34,South,189,2.0,8.0,66,0.00,,,0.01,795,Wunderground v.1.15,2015-03-28 19:12:00,
2015-03-28 12:21:00,59.4,46.4,30.34,SSW,202,5.0,11.0,62,0.00,,,0.01,765,Wunderground v.1.15,2015-03-28 19:21:00,
2015-03-28 12:22:00,58.9,45.5,30.34,SSW,198,9.0,9.0,61,0.00,,,0.01,773,Wunderground v.1.15,2015-03-28 19:22:00,
2015-03-28 12:23:00,59.5,46.5,30.34,WSW,240,7.0,11.0,62,0.00,,,0.01,807,Wunderground v.1.15,2015-03-28 19:23:00,
2015-03-28 12:24:00,59.5,46.5,30.34,WSW,240,6.0,11.0,62,0.00,,,0.01,779,Wunderground v.1.15,2015-03-28 19:24:00,
2015-03-28 12:26:00,59.7,46.7,30.33,SW,223,7.0,11.0,62,0.00,,,0.01,772,Wunderground v.1.15,2015-03-28 19:26:00,
2015-03-28 12:27:00,59.0,46.8,30.34,SSW,198,9.0,14.0,64,0.00,,,0.01,580,Wunderground v.1.15,2015-03-28 19:27:00,
2015-03-28 12:28:00,59.7,45.8,30.33,South,171,6.0,11.0,60,0.00,,,0.01,768,Wunderground v.1.15,2015-03-28 19:28:00,
2015-03-28 12:29:00,59.7,45.8,30.33,SSW,209,5.0,11.0,60,0.00,,,0.01,768,Wunderground v.1.15,2015-03-28 19:29:00,
2015-03-28 12:30:00,59.7,45.8,30.33,South,188,5.0,6.0,60,0.00,,,0.01,766,Wunderground v.1.15,2015-03-28 19:30:00,
2015-03-28 12:31:00,59.5,45.2,30.33,South,182,7.0,12.0,59,0.00,,,0.01,773,Wunderground v.1.15,2015-03-28 19:31:00,
2015-03-28 12:32:00,58.5,45.5,30.34,SW,229,8.0,14.0,62,0.00,,,0.01,775,Wunderground v.1.15,2015-03-28 19:32:00,
2015-03-28 12:37:00,59.3,46.7,30.34,SW,232,8.0,8.0,63,0.00,,,0.01,761,Wunderground v.1.15,2015-03-28 19:37:00,
2015-03-28 12:42:00,59.6,46.6,30.33,West,275,4.0,11.0,62,0.00,,,0.01,779,Wunderground v.1.15,2015-03-28 19:42:00,
2015-03-28 12:47:00,59.6,45.7,30.33,SSW,193,9.0,12.0,60,0.00,,,0.01,770,Wunderground v.1.15,2015-03-28 19:47:00,
2015-03-28 12:52:00,59.3,45.4,30.33,SW,216,5.0,13.0,60,0.00,,,0.01,782,Wunderground v.1.15,2015-03-28 19:52:00,
2015-03-28 12:58:00,60.2,44.4,30.33,SW,227,6.0,7.0,56,0.00,,,0.01,821,Wunderground v.1.15,2015-03-28 19:58:00,
2015-03-28 13:03:00,60.7,45.4,30.33,SW,225,9.0,11.0,57,0.00,,,0.01,471,Wunderground v.1.15,2015-03-28 20:03:00,
2015-03-28 13:08:00,60.5,44.2,30.33,SSW,196,9.0,12.0,55,0.00,,,0.01,529,Wunderground v.1.15,2015-03-28 20:08:00,
2015-03-28 13:13:00,59.6,44.3,30.33,SSW,198,3.0,14.0,57,0.00,,,0.01,842,Wunderground v.1.15,2015-03-28 20:13:00,
2015-03-28 13:22:00,60.1,44.3,30.33,SSW,200,11.0,11.0,56,0.00,,,0.01,925,Wunderground v.1.15,2015-03-28 20:22:00,
2015-03-28 13:27:00,60.1,43.9,30.33,South,176,5.0,8.0,55,0.00,,,0.01,420,Wunderground v.1.15,2015-03-28 20:27:00,
2015-03-28 13:32:00,60.5,43.8,30.33,SW,220,3.0,10.0,54,0.00,,,0.01,789,Wunderground v.1.15,2015-03-28 20:32:00,
2015-03-28 13:37:00,61.4,44.1,30.33,SW,223,8.0,8.0,53,0.00,,,0.01,770,Wunderground v.1.15,2015-03-28 20:37:00,
2015-03-28 13:42:00,61.1,44.3,30.33,SSW,208,11.0,12.0,54,0.00,,,0.01,714,Wunderground v.1.15,2015-03-28 20:42:00,
2015-03-28 13:47:00,60.9,43.1,30.33,SW,219,5.0,9.0,52,0.00,,,0.01,747,Wunderground v.1.15,2015-03-28 20:47:00,
2015-03-28 13:52:00,60.6,42.9,30.33,South,182,6.0,11.0,52,0.00,,,0.01,768,Wunderground v.1.15,2015-03-28 20:52:00,
2015-03-28 13:57:00,61.3,44.5,30.34,SSW,211,7.0,9.0,54,0.00,,,0.01,473,Wunderground v.1.15,2015-03-28 20:57:00,
2015-03-28 14:02:00,61.0,43.7,30.34,SW,215,10.0,13.0,53,0.00,,,0.01,773,Wunderground v.1.15,2015-03-28 21:02:00,
2015-03-28 14:07:00,60.9,43.6,30.33,SW,225,1.0,6.0,53,0.00,,,0.01,747,Wunderground v.1.15,2015-03-28 21:07:00,
2015-03-28 14:12:00,61.3,44.5,30.34,SW,229,4.0,11.0,54,0.00,,,0.01,700,Wunderground v.1.15,2015-03-28 21:12:00,
2015-03-28 14:17:00,61.2,44.4,30.33,SSW,206,4.0,7.0,54,0.00,,,0.01,763,Wunderground v.1.15,2015-03-28 21:17:00,
2015-03-28 14:22:00,61.8,45.0,30.33,WSW,246,4.0,8.0,54,0.00,,,0.01,707,Wunderground v.1.15,2015-03-28 21:22:00,
2015-03-28 14:27:00,61.5,44.7,30.33,SSE,150,6.0,6.0,54,0.00,,,0.01,768,Wunderground v.1.15,2015-03-28 21:27:00,
2015-03-28 14:32:00,61.6,45.3,30.34,SSW,200,10.0,11.0,55,0.00,,,0.01,726,Wunderground v.1.15,2015-03-28 21:32:00,
2015-03-28 14:37:00,61.7,45.8,30.34,WSW,240,9.0,11.0,56,0.00,,,0.01,744,Wunderground v.1.15,2015-03-28 21:37:00,
2015-03-28 14:42:00,61.8,46.4,30.33,SW,219,5.0,11.0,57,0.00,,,0.01,631,Wunderground v.1.15,2015-03-28 21:42:00,
2015-03-28 14:47:00,62.0,45.6,30.34,SW,230,0.0,5.0,55,0.00,,,0.01,729,Wunderground v.1.15,2015-03-28 21:47:00,
2015-03-28 14:52:00,61.6,44.8,30.33,SSW,211,6.0,10.0,54,0.00,,,0.01,712,Wunderground v.1.15,2015-03-28 21:52:00,
2015-03-28 14:57:00,61.2,44.4,30.33,SW,227,6.0,11.0,54,0.00,,,0.01,689,Wunderground v.1.15,2015-03-28 21:57:00,
2015-03-28 15:02:00,61.6,46.2,30.33,SSW,194,4.0,11.0,57,0.00,,,0.01,596,Wunderground v.1.15,2015-03-28 22:02:00,
2015-03-28 15:07:00,61.0,45.7,30.33,SSE,165,4.0,6.0,57,0.00,,,0.01,701,Wunderground v.1.15,2015-03-28 22:07:00,
2015-03-28 15:12:00,61.3,45.5,30.33,SSW,194,9.0,16.0,56,0.00,,,0.01,733,Wunderground v.1.15,2015-03-28 22:12:00,
2015-03-28 15:22:00,61.5,44.2,30.32,South,177,2.0,6.0,53,0.00,,,0.01,729,Wunderground v.1.15,2015-03-28 22:22:00,
2015-03-28 15:27:00,63.3,44.3,30.33,SSE,168,0.0,4.0,50,0.00,,,0.01,717,Wunderground v.1.15,2015-03-28 22:27:00,
2015-03-28 15:32:00,63.0,45.1,30.32,South,178,2.0,11.0,52,0.00,,,0.01,779,Wunderground v.1.15,2015-03-28 22:32:00,
2015-03-28 15:37:00,63.3,45.4,30.32,SSW,202,4.0,6.0,52,0.00,,,0.01,759,Wunderground v.1.15,2015-03-28 22:37:00,
2015-03-28 15:38:00,60.9,44.6,30.32,SSW,210,7.0,12.0,55,0.00,,,0.01,221,Wunderground v.1.15,2015-03-28 22:38:00,
2015-03-28 15:39:00,61.0,44.7,30.32,SW,225,8.0,12.0,55,0.00,,,0.01,246,Wunderground v.1.15,2015-03-28 22:39:00,
2015-03-28 15:40:00,61.0,44.7,30.32,SSW,196,2.0,9.0,55,0.00,,,0.01,390,Wunderground v.1.15,2015-03-28 22:40:00,
2015-03-28 15:41:00,61.0,44.7,30.32,SSE,165,3.0,9.0,55,0.00,,,0.01,390,Wunderground v.1.15,2015-03-28 22:41:00,
2015-03-28 15:42:00,63.1,45.2,30.32,South,175,5.0,11.0,52,0.00,,,0.01,617,Wunderground v.1.15,2015-03-28 22:42:00,
2015-03-28 15:43:00,61.3,45.0,30.32,SSW,211,7.0,9.0,55,0.00,,,0.01,745,Wunderground v.1.15,2015-03-28 22:43:00,
2015-03-28 15:44:00,61.4,44.6,30.32,SSW,204,4.0,9.0,54,0.00,,,0.01,712,Wunderground v.1.15,2015-03-28 22:44:00,
2015-03-28 15:45:00,61.7,44.9,30.32,SW,225,7.0,10.0,54,0.00,,,0.01,745,Wunderground v.1.15,2015-03-28 22:45:00,
2015-03-28 15:47:00,62.4,45.5,30.33,SSW,198,4.0,12.0,54,0.00,,,0.01,650,Wunderground v.1.15,2015-03-28 22:47:00,
2015-03-28 15:52:00,61.4,44.6,30.33,SW,217,7.0,12.0,54,0.00,,,0.01,197,Wunderground v.1.15,2015-03-28 22:52:00,
2015-03-28 15:57:00,60.9,44.6,30.32,SSW,203,5.0,9.0,55,0.00,,,0.01,390,Wunderground v.1.15,2015-03-28 22:57:00,
2015-03-28 16:02:00,61.7,44.9,30.32,SW,225,6.0,10.0,54,0.00,,,0.01,745,Wunderground v.1.15,2015-03-28 23:02:00,
2015-03-28 16:07:00,62.3,44.9,30.32,SSW,198,0.0,4.0,53,0.00,,,0.01,302,Wunderground v.1.15,2015-03-28 23:07:00,
2015-03-28 16:12:00,62.4,44.5,30.32,South,172,3.0,12.0,52,0.00,,,0.01,274,Wunderground v.1.15,2015-03-28 23:12:00,
2015-03-28 16:17:00,61.6,44.8,30.32,SSW,194,0.0,4.0,54,0.00,,,0.01,220,Wunderground v.1.15,2015-03-28 23:17:00,
2015-03-28 16:23:00,61.5,45.2,30.31,South,184,7.0,7.0,55,0.00,,,0.01,200,Wunderground v.1.15,2015-03-28 23:23:00,
2015-03-28 16:28:00,61.2,44.4,30.31,South,175,0.0,8.0,54,0.00,,,0.01,225,Wunderground v.1.15,2015-03-28 23:28:00,
2015-03-28 16:33:00,60.8,44.0,30.31,SSW,205,3.0,9.0,54,0.00,,,0.01,204,Wunderground v.1.15,2015-03-28 23:33:00,
2015-03-28 16:38:00,60.9,44.6,30.31,South,178,0.0,4.0,55,0.00,,,0.01,193,Wunderground v.1.15,2015-03-28 23:38:00,
2015-03-28 16:43:00,61.1,44.3,30.31,SSE,159,7.0,10.0,54,0.00,,,0.01,197,Wunderground v.1.15,2015-03-28 23:43:00,
2015-03-28 16:48:00,61.0,44.2,30.31,SSE,163,0.0,5.0,54,0.00,,,0.01,202,Wunderground v.1.15,2015-03-28 23:48:00,
2015-03-28 16:53:00,61.1,43.8,30.31,SE,136,0.0,9.0,53,0.00,,,0.01,174,Wunderground v.1.15,2015-03-28 23:53:00,
2015-03-28 16:58:00,61.2,44.4,30.31,SSE,164,1.0,4.0,54,0.00,,,0.01,116,Wunderground v.1.15,2015-03-28 23:58:00,
2015-03-28 17:03:00,60.8,43.6,30.31,South,174,3.0,9.0,53,0.00,,,0.01,91,Wunderground v.1.15,2015-03-29 00:03:00,
2015-03-28 17:08:00,60.7,43.9,30.31,SSE,159,7.0,9.0,54,0.00,,,0.01,142,Wunderground v.1.15,2015-03-29 00:08:00,
2015-03-28 17:13:00,60.6,43.4,30.31,South,184,7.0,9.0,53,0.00,,,0.01,151,Wunderground v.1.15,2015-03-29 00:13:00,
2015-03-28 17:22:00,60.5,43.8,30.31,SSE,161,0.0,9.0,54,0.00,,,0.01,171,Wunderground v.1.15,2015-03-29 00:22:00,
2015-03-28 17:27:00,61.1,44.3,30.31,South,190,4.0,6.0,54,0.00,,,0.01,410,Wunderground v.1.15,2015-03-29 00:27:00,
2015-03-28 17:32:00,61.2,43.9,30.31,SSW,204,1.0,9.0,53,0.00,,,0.01,343,Wunderground v.1.15,2015-03-29 00:32:00,
2015-03-28 17:37:00,61.5,43.7,30.31,WSW,245,5.0,9.0,52,0.00,,,0.01,120,Wunderground v.1.15,2015-03-29 00:37:00,
2015-03-28 17:43:00,61.2,43.4,30.31,SW,219,0.0,9.0,52,0.00,,,0.01,111,Wunderground v.1.15,2015-03-29 00:43:00,
2015-03-28 17:48:00,61.1,43.3,30.31,SSW,196,0.0,3.0,52,0.00,,,0.01,104,Wunderground v.1.15,2015-03-29 00:48:00,
2015-03-28 17:53:00,60.8,43.6,30.31,South,171,2.0,6.0,53,0.00,,,0.01,98,Wunderground v.1.15,2015-03-29 00:53:00,
2015-03-28 17:58:00,60.5,43.8,30.32,South,179,3.0,6.0,54,0.00,,,0.01,98,Wunderground v.1.15,2015-03-29 00:58:00,
2015-03-28 18:03:00,60.4,43.7,30.31,South,186,0.0,6.0,54,0.00,,,0.01,88,Wunderground v.1.15,2015-03-29 01:03:00,
2015-03-28 18:08:00,60.3,43.6,30.31,South,188,5.0,6.0,54,0.00,,,0.01,86,Wunderground v.1.15,2015-03-29 01:08:00,
2015-03-28 18:13:00,60.2,43.5,30.31,South,175,0.0,6.0,54,0.00,,,0.01,88,Wunderground v.1.15,2015-03-29 01:13:00,
2015-03-28 18:22:00,60.2,44.4,30.31,South,180,1.0,2.0,56,0.00,,,0.01,79,Wunderground v.1.15,2015-03-29 01:22:00,
2015-03-28 18:27:00,60.2,44.0,30.31,South,180,0.0,0.0,55,0.00,,,0.01,100,Wunderground v.1.15,2015-03-29 01:27:00,
2015-03-28 18:32:00,60.1,43.9,30.31,SSW,196,0.0,6.0,55,0.00,,,0.01,95,Wunderground v.1.15,2015-03-29 01:32:00,